GFSSE_prec_cthk_141.txt.gz
RH
35 30 24 29 35 32 29 28 27 26 22 22 23 23 23 24 26 28 27 26 25 27 35 36 38 40 46 52 58 62 68 67 68 74 88 83 76 72 69 77 96 93 89
33 29 24 31 32 29 27 27 28 27 21 20 22 23 23 25 27 27 28 28 27 31 37 40 42 48 52 62 70 75 77 76 74 80 93 79 70 69 73 83 96 94 92
32 33 27 31 29 27 25 25 26 26 23 20 22 23 24 28 27 27 28 28 31 33 36 42 49 58 65 70 71 76 82 81 77 76 77 71 69 68 77 83 93 92 89
35 36 28 31 27 25 24 26 25 24 22 21 21 23 25 28 27 27 33 34 35 37 41 45 53 63 69 71 73 80 86 87 77 76 77 74 71 74 78 85 88 86 84
39 40 35 28 26 27 27 25 23 22 21 19 19 22 25 27 28 34 32 32 37 39 43 53 59 64 69 67 74 81 85 83 78 79 81 82 76 79 84 86 86 86 81
41 43 35 28 27 27 27 25 23 21 21 20 18 20 27 27 32 31 32 32 35 39 46 55 62 64 68 67 72 80 83 81 84 73 87 89 85 84 84 82 77 79 70
42 45 36 30 28 27 26 25 22 20 20 22 19 19 22 27 29 32 34 36 35 39 43 52 59 61 65 67 74 80 83 77 71 78 77 77 80 85 84 84 77 69 64
45 47 37 30 28 27 26 24 22 20 21 21 23 19 22 24 29 32 33 37 35 37 42 48 54 58 64 70 76 80 78 76 86 92 70 77 89 85 80 79 70 64 62
45 46 39 31 29 28 26 23 22 22 22 22 23 23 23 25 28 31 33 38 35 36 40 45 53 60 68 76 77 74 75 75 86 72 86 96 86 79 77 74 66 60 55
44 50 43 37 29 28 26 24 22 21 23 24 23 27 26 26 28 29 32 34 36 37 39 45 51 62 71 77 75 73 75 81 90 80 80 86 84 78 77 72 61 53 45
42 50 53 40 37 33 27 27 24 23 24 26 26 26 30 30 27 27 32 33 34 36 39 42 53 65 75 80 77 76 80 78 88 86 83 86 83 80 76 72 57 52 44
32 53 57 50 41 38 30 28 27 27 27 28 29 29 28 35 34 35 32 32 34 35 38 40 51 67 72 73 73 77 76 89 76 82 84 79 79 79 75 74 61 56 46
27 39 60 61 49 42 37 33 30 32 35 34 35 34 33 33 40 37 34 30 33 34 38 40 52 69 73 79 75 72 74 78 87 89 84 77 77 83 76 72 62 58 51
24 29 41 64 62 49 42 41 39 38 34 40 38 36 34 37 37 40 41 34 33 36 43 44 53 67 73 81 76 68 73 80 84 89 88 80 84 91 84 74 61 61 59
12 21 27 38 67 63 51 47 43 43 37 35 36 37 36 34 38 37 42 40 36 39 44 48 54 63 72 71 77 80 80 83 82 92 94 87 75 77 86 77 68 64 65
9 10 17 27 34 63 63 50 47 45 46 38 34 33 36 36 41 39 38 38 40 41 44 47 55 65 73 71 76 82 76 84 82 90 94 91 83 78 81 86 79 74 72
14 12 10 13 22 31 57 64 52 48 47 44 36 33 31 37 40 44 41 38 39 41 39 41 52 61 69 73 74 72 72 75 81 90 88 88 87 87 85 85 90 86 82
17 18 14 13 10 17 29 52 65 58 50 49 45 35 32 35 39 41 41 38 41 42 40 39 46 53 64 68 68 66 70 77 82 84 84 82 82 87 92 90 87 92 94
20 22 21 16 13 10 13 30 52 65 60 52 49 41 33 34 39 40 40 37 38 43 45 38 39 45 53 57 63 67 63 65 74 80 82 81 83 88 90 93 92 90 91
25 17 18 20 18 13 10 12 29 53 62 61 52 49 38 35 35 40 41 38 37 38 45 43 40 38 43 47 55 53 59 61 69 73 72 74 74 78 84 90 92 93 89
32 32 21 20 18 26 16 11 12 37 56 67 62 53 46 37 38 37 39 41 36 37 40 42 42 43 43 45 49 46 47 49 53 55 64 68 69 71 72 79 88 92 94
34 35 34 27 26 28 32 19 12 14 48 63 71 62 52 44 42 40 38 40 36 37 40 41 42 44 45 47 49 49 46 46 47 49 53 59 61 64 63 77 90 91 91
40 44 43 43 40 46 38 34 19 13 27 61 75 75 64 53 56 54 44 42 35 36 38 38 39 42 44 47 50 51 54 52 47 45 48 54 57 60 61 72 74 82 90
47 52 52 52 53 55 52 44 24 18 17 53 78 84 75 59 62 61 58 46 37 34 37 35 38 41 45 45 48 50 53 55 58 54 46 50 52 57 57 61 65 68 77
64 63 62 63 58 53 58 59 39 25 17 29 78 93 91 70 66 60 62 54 41 35 36 36 38 41 43 45 46 48 51 54 56 58 60 51 48 50 52 54 58 63 64
74 74 76 67 56 55 52 57 51 28 25 28 58 87 97 85 73 61 59 59 50 37 36 36 40 42 42 44 46 50 51 53 54 57 56 58 51 49 48 53 53 56 60

GFSSE_prec_cthk_144.txt.gz
RH
34 31 27 22 28 29 25 24 25 25 24 20 20 20 24 25 27 27 26 24 23 25 30 34 37 40 41 44 50 59 66 69 68 70 70 75 82 73 74 77 79 81 95
30 29 30 24 29 28 26 24 25 25 23 20 19 19 21 25 28 29 26 25 23 28 33 38 42 45 49 55 60 66 72 75 75 74 66 80 81 72 71 79 80 86 95
32 29 30 25 30 28 25 26 26 25 23 21 19 19 20 24 29 28 29 28 29 31 35 39 44 50 56 61 66 69 73 78 82 79 72 76 71 67 71 81 85 90 93
33 31 31 27 30 25 26 28 27 27 24 23 20 19 20 23 28 28 35 33 35 33 37 42 49 55 61 67 68 68 77 81 84 75 70 73 69 69 72 80 83 87 90
40 38 30 31 29 26 27 27 28 27 25 23 22 19 19 25 32 34 34 33 37 35 39 45 51 57 62 65 66 70 76 79 82 83 83 79 74 73 76 85 84 88 82
41 40 37 35 29 27 27 28 28 27 24 22 21 21 21 27 31 31 30 35 37 36 41 43 52 57 59 62 64 70 75 78 77 82 90 81 80 84 79 81 75 85 77
40 42 43 37 31 29 27 27 25 24 23 22 20 21 25 25 24 27 30 35 43 39 42 44 48 54 59 62 64 71 75 77 79 86 92 85 81 90 81 83 81 75 66
39 42 45 38 31 30 28 26 25 23 22 22 21 22 24 28 25 27 31 34 38 38 39 43 46 52 56 61 66 72 74 81 82 91 94 83 78 82 79 78 83 73 60
34 45 46 37 31 31 29 27 25 23 21 21 22 23 25 26 28 29 30 34 36 35 38 43 47 49 56 63 69 71 76 81 86 84 98 90 87 81 79 74 71 63 58
29 38 48 50 36 32 30 28 25 22 21 21 21 24 24 27 27 31 31 31 31 33 36 40 46 49 56 65 74 71 67 73 83 91 87 77 80 80 79 71 65 56 51
26 37 42 54 53 38 34 29 27 24 22 21 22 23 25 26 29 26 30 32 32 32 34 39 45 47 58 66 74 72 69 67 77 91 83 84 81 79 78 73 63 54 45
22 28 46 51 59 55 42 39 30 28 24 24 25 25 27 28 29 29 29 30 34 32 32 37 38 48 59 65 69 67 64 67 80 97 76 84 87 79 78 71 65 54 47
18 22 33 48 59 62 55 42 37 30 28 26 27 28 27 30 32 35 34 30 30 32 33 33 35 39 57 66 69 63 66 68 79 98 82 82 89 80 76 69 68 57 52
12 15 22 32 48 65 64 56 45 35 35 30 26 28 32 31 33 36 34 35 30 29 32 33 35 40 54 64 72 68 69 68 75 80 97 90 89 84 79 77 68 56 57
13 12 12 19 32 46 62 70 60 51 44 39 39 30 29 33 31 35 36 36 30 29 31 36 37 40 51 68 73 66 67 70 80 84 86 90 89 83 78 80 73 60 59
18 18 17 15 18 25 42 55 73 63 53 44 40 41 32 31 33 32 37 38 35 35 39 38 42 44 52 69 63 65 68 69 74 78 88 89 91 78 71 80 79 69 67
24 22 20 20 18 16 20 35 47 70 63 52 44 38 37 33 32 35 38 41 38 36 41 43 42 47 56 60 63 63 68 69 71 74 85 83 82 83 81 78 81 84 81
22 22 21 16 14 14 14 14 29 44 70 60 50 43 37 35 34 37 38 39 39 39 38 40 36 42 52 63 68 66 62 63 66 71 78 84 79 80 83 85 86 83 89
20 18 16 14 14 13 12 13 13 21 41 64 59 50 41 38 37 38 37 39 39 43 39 37 37 39 46 57 66 68 58 64 67 70 77 79 78 80 82 86 89 88 86
17 16 16 13 12 13 15 13 15 14 21 40 68 56 49 42 38 39 41 39 41 43 44 39 36 39 42 45 54 57 66 61 63 72 79 77 74 75 77 79 83 89 89
22 22 23 21 21 23 20 16 20 22 18 21 39 64 62 50 43 37 41 42 41 41 43 42 38 40 44 45 45 48 51 50 54 62 63 64 68 67 66 69 71 74 86
29 28 27 28 31 29 30 29 26 25 21 19 16 42 81 61 50 39 36 42 41 40 43 42 38 37 43 44 43 44 45 45 43 47 49 53 55 60 58 58 61 71 87
31 31 32 33 33 37 40 36 31 30 31 22 15 16 43 88 57 51 36 41 43 41 40 40 39 36 37 44 43 44 48 47 45 43 42 46 48 51 54 56 58 66 72
36 37 37 38 41 46 53 50 49 44 38 32 25 14 21 47 86 42 39 39 44 43 41 39 40 37 36 38 45 46 47 45 49 55 52 45 44 46 51 52 52 56 59
41 42 43 45 53 58 52 51 53 52 49 45 43 23 13 27 76 70 58 37 45 46 43 39 39 39 35 36 38 43 49 47 51 54 56 56 57 50 48 50 51 51 53
46 48 51 55 62 61 54 52 53 52 51 57 45 32 17 14 59 98 83 46 52 56 52 41 37 37 36 37 37 41 43 47 49 51 54 57 55 55 52 52 51 51 51

GFSSE_prec_cthk_147.txt.gz
RH
43 38 32 27 25 29 28 25 23 23 23 20 19 18 20 21 24 26 25 23 22 23 28 30 34 37 42 49 53 54 60 67 68 69 66 65 67 68 75 72 77 74 76
46 39 32 29 26 29 27 24 25 25 23 21 19 18 20 22 23 26 25 24 24 26 32 36 38 40 44 49 55 62 65 69 74 72 68 67 68 69 70 67 76 80 80
41 40 32 31 27 30 28 25 24 24 24 22 20 18 19 21 23 25 26 29 27 30 36 39 39 46 50 56 61 69 69 73 76 76 75 73 67 72 65 74 81 89 92
33 35 33 32 28 29 26 25 25 24 24 22 21 20 19 21 25 27 27 30 30 34 34 36 42 50 56 61 66 68 68 73 77 76 75 72 66 68 69 72 83 88 91
33 38 36 29 30 29 25 25 25 25 25 23 21 20 19 22 30 33 30 29 32 37 34 39 43 50 59 62 68 67 71 74 77 78 79 74 71 71 75 77 88 87 86
37 40 41 34 33 28 26 26 25 24 23 22 21 19 19 21 31 30 30 30 35 37 35 40 45 51 57 61 66 67 74 73 81 87 87 84 81 74 80 78 86 88 82
33 38 43 41 38 30 29 27 25 24 22 20 19 19 19 23 25 25 28 31 34 38 36 38 46 48 57 62 67 71 76 79 78 81 90 87 81 83 80 81 86 82 70
27 34 41 46 41 33 29 27 25 24 21 19 18 19 20 23 23 22 25 30 34 35 34 34 41 45 54 63 68 73 78 81 82 90 90 95 86 87 79 80 85 73 64
25 29 37 43 42 34 30 29 26 23 21 19 18 18 20 22 23 22 24 26 33 33 32 33 39 43 52 64 69 79 80 82 83 88 88 91 90 87 82 80 80 73 64
24 27 33 44 51 42 35 32 28 24 21 20 19 19 20 23 23 24 26 26 32 30 32 32 37 42 48 60 74 81 80 76 76 81 83 90 92 91 84 82 76 63 55
20 25 43 41 49 56 48 37 34 30 24 22 21 20 21 23 25 25 27 26 28 30 30 33 36 42 45 59 72 78 74 73 74 87 82 82 88 86 84 78 71 61 48
17 19 27 38 51 54 60 50 39 37 32 28 24 23 23 24 26 27 27 27 27 28 28 31 34 40 45 57 65 73 75 67 77 91 88 88 86 86 82 79 71 60 50
14 16 21 28 37 47 62 72 54 42 38 33 29 25 24 24 27 30 29 28 26 28 28 29 31 35 40 53 63 69 71 69 76 91 92 96 93 87 82 79 71 63 51
20 18 16 19 27 33 40 55 75 63 46 39 35 30 28 26 26 30 32 29 27 28 29 29 29 33 38 52 63 71 73 72 78 80 80 89 95 89 82 77 73 66 55
21 20 16 13 13 23 29 36 47 66 70 51 42 39 34 30 28 29 32 35 30 28 27 28 31 32 36 50 60 71 68 73 73 78 82 86 90 92 85 79 79 72 61
20 19 18 17 17 15 19 26 32 40 58 71 59 45 43 39 33 32 32 34 35 33 26 28 30 33 37 48 64 75 66 68 71 73 76 78 81 88 80 73 77 73 66
21 19 18 17 16 15 14 13 19 27 37 49 63 67 46 44 41 37 34 35 36 40 34 34 34 38 41 46 58 74 70 64 70 71 71 77 78 81 80 76 75 77 76
21 18 16 15 13 11 10 9 9 10 20 31 44 59 68 48 44 43 39 35 37 41 38 40 38 42 44 48 56 67 76 69 68 67 67 74 76 74 74 80 83 85 81
16 15 15 14 13 12 10 10 9 8 7 13 25 40 53 72 51 45 44 39 36 40 39 40 39 36 41 48 52 60 70 75 66 60 64 70 74 74 74 77 84 89 88
14 14 14 14 13 13 13 12 12 10 9 8 9 22 35 50 73 51 44 43 42 40 41 43 42 39 36 44 49 51 59 68 58 62 64 75 77 70 68 73 77 82 85
14 15 15 16 17 17 16 16 15 15 13 12 11 9 23 34 55 73 45 40 47 39 39 42 41 42 40 42 49 51 51 54 53 53 58 66 67 61 65 63 64 68 69
18 19 19 20 21 21 21 20 21 21 20 18 15 14 11 23 37 62 66 43 45 46 38 43 42 43 42 42 44 45 50 46 45 45 44 46 48 53 55 57 53 57 61
20 21 22 24 27 28 29 28 31 32 30 26 24 19 20 15 20 44 71 73 53 54 43 40 41 40 41 43 40 41 46 43 41 41 39 41 41 43 46 51 49 52 57
21 23 26 27 31 34 38 39 43 41 40 41 34 29 26 21 16 20 54 82 82 61 52 41 44 39 41 42 43 42 39 38 40 42 44 44 42 39 40 44 47 50 52
24 26 30 32 38 43 48 53 53 49 47 44 44 38 29 32 22 17 16 60 91 80 57 50 47 47 40 40 38 40 42 39 38 35 40 44 47 46 46 43 43 47 48
22 27 33 37 49 55 57 66 60 51 48 44 41 41 39 37 37 28 21 26 47 92 78 55 47 50 44 42 40 37 40 38 40 39 38 40 44 46 47 49 45 45 47

GFSSE_prec_cthk_153.txt.gz
RH
44 46 44 45 43 34 29 29 28 26 23 22 21 21 21 21 20 20 20 19 20 23 22 25 28 32 37 43 47 50 50 56 60 59 60 57 60 65 64 67 65 68 70
42 45 43 44 44 35 30 31 30 26 23 22 21 20 21 21 20 20 21 20 23 26 27 26 30 34 38 45 48 48 52 58 57 59 59 61 68 68 67 71 77 80 83
39 44 45 46 42 33 30 32 31 26 24 23 22 21 20 21 21 21 22 26 26 26 37 34 34 36 42 47 49 53 57 62 64 63 64 64 68 69 73 78 82 83 90
31 35 38 36 39 34 32 34 33 27 25 24 23 22 21 21 22 23 23 26 27 26 34 40 38 39 44 49 53 59 62 70 63 67 64 68 70 74 78 80 83 87 90
32 34 39 36 38 38 36 37 36 28 26 24 23 22 21 21 23 24 26 25 24 27 32 36 40 41 43 48 55 60 66 71 67 67 67 71 72 73 74 82 85 91 92
33 36 39 47 47 42 40 39 35 29 26 25 23 23 22 23 24 26 28 25 23 26 32 35 40 44 45 50 53 60 67 72 72 74 74 77 76 79 78 81 85 88 88
34 34 34 35 46 50 49 45 39 32 30 27 25 23 22 22 24 28 31 26 23 25 31 32 37 42 45 48 54 62 69 73 75 76 73 77 82 83 82 79 84 87 86
31 33 34 36 41 49 50 49 46 38 34 30 27 26 24 23 23 25 29 26 25 26 30 31 34 36 41 46 52 65 69 75 77 77 77 79 81 85 82 83 90 88 86
26 28 32 36 38 42 48 50 51 45 39 35 29 27 26 26 27 26 27 27 27 27 30 33 32 34 37 43 56 62 73 79 83 81 80 83 83 85 87 90 94 86 81
18 20 27 32 38 43 48 52 52 48 44 41 35 29 28 27 28 29 28 27 29 30 31 33 32 33 35 41 48 63 72 82 81 78 76 82 85 89 87 90 94 86 75
14 15 19 27 34 42 47 53 56 55 52 45 45 44 38 30 28 30 31 30 30 32 31 33 34 32 35 39 44 62 72 80 77 72 71 79 85 89 90 89 93 82 71
15 15 16 17 22 26 34 45 53 59 64 61 55 49 46 44 36 31 33 34 33 33 33 33 33 33 34 36 42 53 67 74 75 69 68 73 79 87 92 89 90 75 64
17 17 17 18 19 20 23 27 32 41 51 59 65 64 53 50 48 42 35 35 36 36 36 34 33 32 33 36 38 45 61 71 72 69 70 77 86 94 91 89 84 72 64
22 21 21 21 20 19 19 19 20 23 30 37 44 56 66 58 53 52 46 37 38 39 39 39 37 34 34 36 37 40 52 67 72 73 73 82 84 87 87 88 81 73 65
22 21 19 18 17 16 15 14 13 14 16 17 26 35 43 60 64 57 59 56 40 39 43 42 41 39 37 37 37 38 48 69 77 72 74 79 78 82 85 87 84 74 68
21 20 19 15 12 12 11 11 11 11 10 10 11 14 27 35 49 68 62 60 60 49 43 46 46 44 42 39 38 38 41 64 77 74 73 75 74 77 82 86 83 74 70
19 19 15 13 13 12 12 11 11 11 10 9 8 8 9 12 26 38 61 69 61 61 56 48 50 48 46 44 40 40 41 61 75 76 74 73 73 76 83 84 86 75 73
19 17 14 14 14 12 11 12 12 12 11 10 10 10 8 7 8 15 29 50 69 67 65 61 52 52 52 49 46 41 41 59 72 78 78 76 72 72 79 84 87 82 76
17 16 14 13 12 11 10 11 12 12 11 11 10 10 11 10 9 8 10 19 44 68 74 68 64 55 53 56 53 51 47 59 72 76 79 78 72 71 75 77 80 78 80
17 16 15 14 13 12 11 10 11 11 12 13 13 13 13 12 13 11 10 10 17 40 61 73 70 63 60 57 58 56 55 60 69 78 78 79 76 69 75 75 78 76 80
18 17 17 17 16 14 13 11 11 11 12 13 14 14 15 16 17 18 14 13 11 17 38 64 74 74 63 63 65 68 61 65 67 72 74 73 80 72 74 81 78 74 76
21 21 20 18 17 17 16 16 15 14 13 15 17 19 21 20 20 21 21 16 16 14 21 39 65 77 71 64 66 67 68 70 65 66 72 71 74 69 69 78 81 75 70
23 23 23 21 19 18 17 17 16 15 15 17 21 22 27 28 28 27 24 21 19 19 17 28 45 76 79 68 67 67 68 61 66 63 62 67 68 62 63 70 69 65 70
25 25 24 23 20 19 19 19 18 18 18 21 25 30 31 31 32 32 30 27 23 23 22 21 33 53 83 77 71 71 68 63 63 62 58 62 65 57 54 55 57 58 59
27 26 26 25 22 20 19 19 19 19 21 23 29 37 42 35 39 39 33 31 30 26 28 26 26 36 74 87 74 66 71 68 60 61 57 57 56 51 49 48 50 54 55
29 28 26 26 22 19 19 18 18 20 24 26 32 43 49 38 42 49 47 41 33 33 31 31 29 32 40 96 82 79 66 65 60 55 55 49 41 40 43 42 44 48 51